Powrót do katalogu

PRAETORIAN SDA_519

AktywnyPO
NORAD 100077·PAYLOAD·🇺🇸 United States

Wystrzelony Jul 16, 2026 z Vandenberg Space Force Base

Loading…

Następne Przeloty (najbliższe 24 godziny)

TLE

ŚwieżeSource: Space-Track

Epoka: Sep 14, 2026, 16:35 UTC

1 A0077U 26163U   26257.69118049  .00000140  00000-0  11180-3 0  9991
2 A0077  81.4807 255.2822 0014734  54.9438 305.3099 13.85570032  8294

Śledź PRAETORIAN SDA_519 w czasie rzeczywistym z AllMySat

Download on the App Store